SRR6374 EDDK-LFLL

Flight info

Callsign SRR6374
Flight time N/A
Altitude 35000
Route KUMIK4X KUMIK Y854 BOMBI/N0475F340 DCT GIGET DCT ABUKA/N0471F380 DCT KRH DCT NATOR/N0474F370 DCT LUTIX DCT BENOT N869 MILPA
Aircraft B77L/H-SDE1E2E3FGHIJ2J3J4J5M1RWXY/LB1D1

Departure

Time N/A
Airport Cologne Bonn Airport (EDDK)

Arrival

Time 2026-05-04 12:41
Airport Lyon Saint-Exupéry Airport (LFLL)
Time Latitude Longitude Altitude Speed Heading
2026-05-04 12:37 45.86065 5.07638 3214 ft 166 kts 175°
2026-05-04 12:37 45.84959 5.07774 3103 ft 150 kts 175°
2026-05-04 12:38 45.83908 5.07903 2894 ft 150 kts 174°
2026-05-04 12:38 45.82893 5.08028 2698 ft 145 kts 174°
2026-05-04 12:38 45.81941 5.08146 2524 ft 137 kts 174°
2026-05-04 12:38 45.80999 5.08261 2324 ft 133 kts 174°
2026-05-04 12:39 45.80088 5.08374 2155 ft 131 kts 175°
2026-05-04 12:39 45.79169 5.08488 1986 ft 133 kts 175°
2026-05-04 12:39 45.78247 5.08598 1762 ft 133 kts 174°
2026-05-04 12:39 45.77325 5.08717 1581 ft 133 kts 173°
2026-05-04 12:40 45.76393 5.08829 1371 ft 135 kts 173°
2026-05-04 12:40 45.75488 5.08938 1223 ft 134 kts 174°
2026-05-04 12:40 45.74549 5.09054 1029 ft 136 kts 173°
2026-05-04 12:40 45.73612 5.09169 843 ft 135 kts 173°
2026-05-04 12:41 45.72729 5.09281 806 ft 108 kts 176°
2026-05-04 12:41 45.72210 5.09343 813 ft 42 kts 175°
2026-05-04 12:41 45.71988 5.09369 818 ft 30 kts 175°
2026-05-04 12:41 45.71781 5.09337 818 ft 30 kts 195°
2026-05-04 12:42 45.71685 5.09282 820 ft 9 kts 204°
2026-05-04 12:42 45.71643 5.09219 819 ft 9 kts 246°
2026-05-04 12:42 45.71629 5.09094 819 ft 15 kts 264°
2026-05-04 12:42 45.71620 5.08942 819 ft 15 kts 265°
2026-05-04 12:43 45.71612 5.08789 815 ft 15 kts 265°
2026-05-04 12:43 45.71602 5.08636 819 ft 15 kts 265°
2026-05-04 12:43 45.71556 5.08512 816 ft 15 kts 194°
2026-05-04 12:43 45.71449 5.08515 818 ft 15 kts 192°
2026-05-04 12:44 45.71409 5.08383 820 ft 15 kts 264°
2026-05-04 12:44 45.71421 5.08231 822 ft 15 kts 284°
2026-05-04 12:44 45.71446 5.08093 821 ft 8 kts 285°
2026-05-04 12:44 45.71429 5.08043 818 ft 7 kts 206°
2026-05-04 12:45 45.71392 5.08026 821 ft 0 kts 195°